User: anonymous   Login
Location: Munkebjergskolens Observatorium
(55.3864°N, 10.3987°E)
Time: 00:13:30
(UTC+02:00)
Language:

KAITUO 1B - Orbit

View from above orbital plane
View from above orbital plane
View from above satellite
View from above satellite

Ground track
Ground track

The orbit data is extracted from the following two-line orbital elements,

1 40912U 15049P   23090.50687821  .00045134  00000-0  12089-2 0  9995
2 40912  97.4258 107.0684 0009889  17.8560 135.6812 15.37827333417640
Epoch (UTC): 31 March 2023 12:09:54
Eccentricity: 0.0009889
inclination: 97.4258°
perigee height: 446 km
apogee height: 459 km
right ascension of ascending node: 107.0684°
argument of perigee: 17.8560°
revolutions per day: 15.37827333
mean anomaly at epoch: 135.6812°
orbit number at epoch: 41764

The dashed part of the orbit path shows where the satellite is in the earth's shadow,  

DLR